Voltar ao catálogo

STARLINK-37529

AtivoComunicaçõesSSO
NORAD 68918·PAYLOAD·🇺🇸 United States

Lançado Apr 30, 2026 de Vandenberg Space Force Base

Loading…

Próximas Passagens (próximas 24 horas)

TLE

AtualizadoSource: CelesTrak SupGP

Época: Sep 14, 2026, 16:07 UTC

1 68918C 26097Z   26257.67201389 -.00070222  00000+0 -21810-2 0  2579
2 68918  97.2849  91.9698 0001993  87.7322 269.7778 15.33457004    15

Acompanhe STARLINK-37529 em tempo real com AllMySat

Download on the App Store